Wind_Speed
26 27 28 27 29 34 38 43 44 48 55 62 68 76 82 64 48 32 32 39 43 48 46 49 36 13 13 18 28 34 43 63 44 40 53 55 52 64 60 60 49 52 55 53 51 52 61
26 27 28 26 31 35 39 43 44 48 53 59 67 75 80 63 47 31 31 37 42 46 43 45 33 18 11 14 25 36 42 59 53 44 44 54 53 61 61 59 53 52 54 50 49 46 55
26 27 28 29 34 37 40 42 44 46 52 58 65 73 80 65 45 32 31 35 40 44 41 44 33 13 12 13 14 33 35 61 47 37 34 49 54 60 59 57 55 53 54 60 53 49 45
25 27 28 31 34 37 40 43 44 45 50 56 64 70 80 69 47 32 31 34 38 42 40 42 31 11 11 6 10 28 35 55 49 39 39 50 51 57 57 58 56 46 46 57 38 46 39
25 27 29 32 34 35 34 39 37 42 48 54 62 69 78 65 49 32 30 34 35 40 39 41 28 9 6 4 7 21 37 52 60 43 39 56 46 61 51 55 56 48 40 43 38 39 42
24 26 28 31 33 32 32 37 36 41 45 53 59 68 76 71 50 34 31 31 34 38 38 39 26 10 4 8 4 18 43 41 47 43 46 48 45 50 52 52 55 51 45 34 37 40 39
23 25 27 28 30 30 30 33 34 39 43 50 57 66 74 74 50 33 28 29 33 35 36 38 25 10 5 11 9 46 45 36 40 43 42 51 34 39 57 49 50 49 45 42 34 36 48
23 24 24 28 28 26 28 28 34 37 42 48 55 65 74 79 50 33 27 27 31 32 33 31 22 8 4 10 16 47 43 39 39 43 47 50 39 37 45 52 45 45 42 39 37 29 31
22 24 22 25 25 25 25 30 32 35 40 46 53 64 72 77 50 33 25 26 30 32 31 29 22 6 8 13 24 39 41 29 38 37 44 43 43 35 35 45 48 44 40 36 34 32 30
22 22 21 23 21 23 26 29 31 33 37 43 52 61 70 76 53 34 24 22 27 30 30 26 20 7 9 23 40 37 34 28 26 39 45 31 31 36 35 35 43 41 38 33 30 34 35
22 21 19 21 18 22 24 22 28 31 34 41 50 59 69 75 63 32 21 20 24 28 29 24 22 11 14 30 33 28 33 34 34 37 41 35 27 39 34 27 37 35 35 32 27 25 28
23 21 18 17 16 22 25 23 26 29 32 39 47 58 65 72 62 31 17 18 21 25 25 21 23 11 15 32 34 24 27 32 34 41 46 35 29 31 32 28 30 34 29 30 29 28 25
24 20 18 14 16 21 25 21 24 29 30 37 43 54 63 71 64 38 15 15 17 22 26 21 24 16 20 34 35 22 21 26 34 44 47 34 35 31 28 28 27 30 31 30 31 30 28
24 21 19 16 16 23 21 20 24 28 29 35 42 52 60 68 66 41 13 11 14 18 21 19 25 20 20 36 30 27 23 24 28 32 36 21 35 29 25 28 26 30 31 31 33 30 26
25 23 21 21 20 23 21 22 23 25 29 31 39 48 57 65 65 46 13 8 11 14 18 18 19 24 26 42 36 29 29 26 35 23 22 22 29 29 28 25 28 30 29 30 30 30 25
27 24 21 20 20 23 24 22 22 23 27 28 36 45 53 62 62 48 16 5 6 9 15 15 16 20 20 32 27 25 30 34 26 28 24 27 27 30 27 25 27 29 31 29 26 25 23
28 23 20 19 18 21 21 18 19 21 25 27 33 41 51 58 59 50 22 2 1 4 10 12 9 12 17 17 19 29 26 23 22 24 23 25 24 21 24 30 31 27 28 28 26 26 24
29 22 19 18 16 17 14 15 17 19 23 24 30 38 48 55 57 51 28 7 3 1 4 9 12 9 15 15 17 24 26 19 24 18 21 23 19 18 19 19 22 24 27 27 28 28 27
30 19 19 17 13 11 11 12 13 17 20 22 28 35 43 52 56 50 34 5 4 5 4 5 8 8 7 10 15 19 25 20 21 20 17 22 17 20 20 21 24 23 22 26 28 27 27
30 23 21 17 11 8 8 9 11 14 19 22 26 33 39 46 50 49 34 11 6 8 5 6 5 4 7 9 11 17 25 24 21 22 19 18 17 18 20 19 20 21 23 26 29 31 27
37 28 25 19 13 6 4 6 8 12 18 22 24 31 31 42 46 46 34 14 7 11 9 6 6 6 6 9 11 13 28 27 26 25 21 20 19 20 20 20 22 23 24 25 26 23 30
38 27 26 21 15 8 5 2 6 11 17 20 23 28 29 38 42 45 35 21 5 12 13 11 8 8 7 6 9 12 15 20 20 21 23 20 19 20 24 26 26 26 23 24 28 29 32
40 29 28 24 18 10 5 2 6 10 16 19 21 24 26 32 36 40 38 26 4 13 14 15 12 10 9 9 10 10 12 13 16 19 22 24 23 24 25 25 27 28 27 29 28 29 32
40 33 25 23 15 11 6 2 7 10 16 17 18 21 22 27 34 36 37 29 8 12 15 16 16 15 14 12 13 14 13 13 13 13 14 17 19 19 19 21 21 21 24 25 25 26 27
42 32 24 19 17 9 6 1 7 9 12 15 16 18 19 23 30 31 33 29 16 4 16 18 17 16 16 15 14 14 14 14 13 14 16 17 18 19 19 20 22 22 23 24 25 26 25
44 35 34 28 19 11 7 3 7 9 9 13 16 15 16 20 24 29 31 31 21 6 12 18 18 18 16 15 15 15 14 14 12 12 13 15 18 20 19 19 21 23 25 25 26 28 26
43 37 30 25 20 14 9 4 8 10 7 11 12 11 13 18 19 24 27 28 25 14 3 17 19 17 19 18 17 16 15 15 13 14 12 11 13 17 19 18 23 21 21 21 23 24 22
45 37 34 30 23 18 13 8 7 9 7 8 9 10 11 13 15 19 20 25 26 20 10 5 16 18 16 18 18 20 18 18 17 16 15 13 13 13 15 17 20 18 17 19 19 19 18
40 37 38 32 23 23 20 17 16 23 15 4 5 10 6 8 14 17 16 19 25 22 15 8 6 14 17 19 20 20 19 19 19 19 19 17 16 16 16 17 19 19 18 18 19 19 21
Wind_Direction
314 314 319 321 330 336 340 339 345 350 350 349 350 348 347 351 344 333 333 339 344 346 348 350 349 313 251 236 222 214 198 196 198 201 208 208 210 205 201 198 198 206 206 206 212 212 217
310 314 316 317 324 332 337 339 342 350 350 349 349 350 347 353 345 332 330 339 344 347 349 352 346 322 274 254 225 213 198 192 191 196 200 206 209 202 204 202 200 203 206 211 216 212 216
310 311 312 306 313 321 328 335 339 346 349 350 350 350 347 353 343 337 330 336 342 348 349 352 347 326 300 265 242 213 202 188 182 190 197 196 205 199 202 201 198 200 209 208 211 205 207
308 311 311 313 312 319 324 330 334 343 349 350 352 349 346 356 343 337 335 335 341 347 350 355 352 328 329 270 227 200 195 184 179 181 190 191 201 196 203 200 201 205 211 219 215 201 205
306 311 313 314 314 324 329 334 337 345 347 351 352 349 345 355 346 340 338 338 341 348 349 357 357 346 331 146 146 184 182 181 193 182 187 188 200 196 201 202 202 206 206 212 220 221 213
306 311 313 314 318 327 332 334 338 341 347 352 353 349 346 352 349 342 341 340 342 349 350 359 3 1 154 186 106 172 157 175 192 173 182 191 196 201 199 202 203 206 212 207 217 228 217
304 308 313 315 322 332 330 331 338 341 348 353 353 351 346 352 351 342 342 344 346 350 352 359 8 14 160 211 185 161 153 160 193 190 176 181 187 201 203 201 203 208 214 214 218 221 223
300 304 313 315 322 333 331 334 338 340 349 353 352 355 347 348 353 343 342 347 347 351 354 7 12 15 106 189 154 174 158 166 166 183 179 184 192 198 201 204 202 207 214 213 212 212 219
294 298 312 314 320 330 324 328 334 338 349 352 353 356 348 348 352 343 344 349 351 355 357 15 19 75 83 146 158 164 179 167 187 174 175 183 193 191 196 204 206 208 212 216 218 215 215
288 296 307 309 320 323 318 316 329 336 348 352 358 358 348 350 353 349 345 349 357 359 3 16 26 65 141 161 159 138 163 177 187 181 174 182 184 192 202 209 205 208 213 211 214 225 226
282 292 300 303 319 315 320 321 328 333 347 353 1 0 351 349 353 351 345 350 357 359 7 14 20 55 149 174 161 145 157 160 167 177 177 185 190 189 195 203 207 205 211 214 217 223 231
274 284 294 291 314 314 318 315 326 337 347 356 2 0 354 349 354 357 347 345 1 3 12 20 22 57 146 174 180 144 133 160 162 170 176 180 178 187 196 202 205 198 207 215 219 224 232
267 275 281 288 308 308 312 314 324 336 346 356 1 3 354 349 355 355 350 345 0 9 13 24 36 67 133 162 172 155 144 162 168 173 181 177 169 169 181 192 197 200 208 213 218 223 227
261 270 269 272 301 303 308 310 324 336 344 353 3 5 356 349 354 355 358 347 4 17 20 30 57 68 135 151 149 138 127 160 166 167 174 182 204 196 200 199 197 196 204 211 218 220 229
252 261 266 265 278 296 309 306 318 335 342 349 4 4 354 349 355 355 4 350 6 25 31 39 74 68 140 138 130 123 137 148 152 155 172 184 186 191 194 204 206 209 213 215 218 223 234
247 255 265 258 267 283 298 303 317 333 340 348 4 4 355 351 354 358 6 344 358 34 37 41 85 89 119 165 155 141 140 149 147 162 175 176 183 192 197 204 205 206 208 216 222 229 234
243 250 257 251 262 277 292 302 315 333 339 350 3 4 359 353 355 0 5 337 343 34 43 49 70 98 118 143 178 170 147 152 147 165 166 179 183 193 198 205 206 204 207 216 224 231 231
240 242 246 246 261 269 283 305 314 334 338 352 0 2 2 357 354 1 2 340 179 88 56 60 70 105 120 138 165 192 178 143 160 160 169 178 187 193 204 201 207 214 214 219 226 234 242
240 235 235 239 255 274 288 302 316 334 343 354 2 4 7 359 353 360 3 358 185 177 113 97 103 102 142 136 154 178 187 171 176 178 177 182 191 191 190 200 203 213 218 225 230 233 234
230 232 230 236 246 267 295 308 321 343 350 2 3 6 6 5 354 357 3 357 206 183 184 143 135 133 147 149 168 178 179 187 187 188 184 190 195 201 206 208 213 215 219 226 230 231 241
233 229 228 231 239 255 295 324 336 355 354 2 1 7 11 7 356 355 5 1 200 196 195 188 157 159 153 156 153 157 173 176 183 187 194 202 208 211 221 224 225 226 231 238 246 256 251
231 235 230 232 236 240 252 303 348 348 349 355 4 7 7 13 5 354 5 8 223 207 199 207 191 181 175 172 165 179 187 198 205 210 215 220 228 231 233 234 233 238 251 260 259 259 264
228 233 227 227 230 235 243 257 329 342 346 0 7 10 5 13 13 357 2 10 320 214 205 210 212 203 204 201 198 189 195 207 215 223 225 227 232 233 234 237 240 246 253 254 256 259 258
223 220 219 216 223 233 227 277 337 338 349 355 8 9 5 10 18 1 360 8 11 213 212 207 215 217 215 214 216 214 215 219 224 229 235 237 237 239 240 241 243 241 242 248 252 256 261
221 216 210 211 218 239 242 328 325 338 345 355 3 5 4 10 21 12 2 5 17 242 210 213 213 222 221 222 222 226 226 231 238 241 242 243 245 246 246 250 252 250 249 250 255 257 259
221 213 217 225 239 239 225 256 303 308 333 342 349 355 8 11 18 26 10 3 13 13 218 213 222 223 226 227 225 228 231 232 237 244 246 250 248 247 246 245 247 245 245 246 251 256 260
220 213 216 229 220 224 232 262 299 305 295 323 334 343 6 13 17 27 17 2 8 13 292 217 222 221 227 233 234 233 234 237 241 245 250 255 251 245 243 242 244 248 252 255 253 259 262
217 214 215 219 234 224 234 259 310 317 285 326 332 334 0 16 19 27 28 9 8 14 8 247 234 232 231 239 242 240 242 241 244 246 249 252 256 256 250 246 255 263 259 253 253 255 255
211 215 220 220 223 231 244 255 292 305 257 264 306 320 346 2 22 22 22 20 7 5 20 9 255 241 233 241 247 248 244 246 250 250 254 254 255 258 261 262 262 265 263 258 255 257 259
Height
5809 5806 5801 5796 5791 5786 5779 5772 5762 5752 5741 5729 5716 5701 5686 5673 5661 5651 5645 5638 5628 5618 5607 5597 5588 5584 5583 5583 5586 5592 5600 5613 5626 5636 5648 5660 5669 5681 5694 5705 5711 5723 5732 5738 5744 5752 5758
5805 5801 5797 5793 5787 5782 5775 5768 5759 5748 5738 5726 5712 5697 5682 5670 5654 5647 5640 5634 5625 5614 5604 5594 5585 5580 5578 5579 5581 5587 5594 5606 5619 5633 5645 5654 5665 5675 5687 5699 5710 5719 5725 5735 5740 5748 5753
5801 5796 5793 5788 5782 5778 5772 5765 5756 5746 5734 5722 5709 5695 5679 5665 5650 5643 5637 5630 5622 5611 5601 5591 5582 5577 5574 5574 5574 5579 5588 5601 5617 5629 5639 5651 5660 5671 5683 5693 5703 5711 5719 5724 5732 5742 5749
5796 5792 5788 5784 5779 5773 5768 5762 5753 5743 5731 5720 5707 5693 5675 5660 5647 5639 5632 5626 5619 5609 5599 5588 5579 5575 5572 5569 5569 5573 5584 5598 5612 5623 5638 5649 5655 5666 5677 5688 5698 5705 5712 5718 5727 5734 5742
5790 5787 5784 5780 5774 5770 5764 5758 5749 5740 5729 5718 5705 5690 5673 5657 5644 5636 5630 5623 5616 5607 5597 5587 5578 5574 5571 5571 5572 5575 5583 5598 5610 5622 5634 5646 5654 5664 5674 5683 5692 5698 5709 5718 5723 5729 5736
5785 5782 5779 5775 5770 5764 5761 5755 5746 5736 5726 5715 5704 5689 5671 5656 5643 5633 5628 5621 5614 5606 5596 5586 5578 5575 5573 5572 5574 5577 5589 5600 5611 5621 5631 5644 5653 5662 5669 5679 5691 5700 5706 5715 5722 5728 5735
5780 5777 5775 5771 5766 5760 5756 5751 5742 5733 5724 5713 5702 5687 5671 5654 5642 5632 5626 5620 5615 5606 5595 5586 5578 5574 5574 5574 5576 5579 5590 5605 5612 5620 5633 5641 5649 5662 5673 5680 5687 5696 5704 5712 5719 5724 5729
5776 5773 5769 5766 5761 5757 5753 5747 5739 5731 5721 5711 5700 5686 5670 5652 5642 5630 5625 5621 5614 5607 5596 5586 5580 5576 5576 5577 5579 5581 5590 5600 5609 5620 5631 5642 5653 5659 5668 5678 5686 5694 5701 5709 5716 5720 5725
5771 5768 5764 5761 5757 5752 5749 5744 5736 5728 5719 5710 5699 5684 5669 5654 5639 5629 5624 5620 5614 5606 5598 5588 5583 5580 5581 5582 5582 5588 5596 5603 5612 5623 5634 5642 5652 5660 5668 5675 5685 5692 5699 5706 5711 5716 5719
5764 5762 5759 5757 5753 5748 5745 5740 5733 5725 5717 5709 5697 5685 5669 5652 5638 5628 5624 5619 5613 5606 5599 5593 5587 5584 5586 5585 5586 5594 5602 5609 5615 5625 5634 5643 5651 5659 5667 5674 5682 5690 5697 5704 5709 5714 5718
5759 5757 5754 5752 5748 5744 5740 5736 5730 5723 5715 5708 5696 5684 5668 5651 5638 5629 5623 5619 5614 5608 5602 5596 5591 5587 5589 5589 5593 5597 5605 5612 5618 5627 5637 5645 5652 5659 5666 5673 5680 5689 5695 5701 5706 5710 5714
5753 5751 5749 5747 5743 5740 5737 5733 5727 5721 5714 5706 5695 5684 5670 5653 5638 5628 5622 5619 5617 5612 5604 5599 5593 5589 5590 5593 5596 5602 5608 5614 5620 5629 5637 5645 5652 5659 5666 5673 5679 5685 5692 5698 5704 5708 5711
5746 5745 5744 5742 5739 5736 5733 5729 5724 5718 5712 5705 5695 5684 5669 5652 5639 5626 5622 5621 5619 5613 5608 5603 5597 5592 5592 5596 5602 5609 5613 5619 5626 5631 5638 5645 5652 5659 5665 5671 5676 5683 5689 5695 5701 5704 5708
5739 5740 5738 5737 5734 5732 5728 5725 5720 5716 5710 5703 5693 5683 5669 5654 5639 5626 5622 5621 5618 5616 5610 5607 5603 5599 5599 5603 5610 5615 5618 5623 5629 5635 5643 5648 5653 5659 5666 5670 5678 5682 5688 5692 5696 5700 5704
5730 5732 5732 5731 5729 5727 5724 5720 5717 5713 5707 5701 5692 5683 5670 5654 5639 5626 5623 5622 5620 5619 5615 5612 5610 5608 5607 5612 5616 5619 5623 5627 5633 5638 5644 5648 5654 5661 5665 5669 5675 5679 5685 5690 5693 5697 5702
5723 5724 5725 5725 5723 5721 5720 5716 5713 5709 5704 5699 5691 5684 5670 5655 5641 5628 5624 5622 5622 5621 5619 5616 5616 5615 5615 5618 5621 5623 5627 5632 5637 5642 5645 5651 5656 5660 5664 5667 5673 5677 5683 5688 5691 5695 5698
5715 5717 5718 5719 5718 5716 5715 5712 5710 5706 5702 5696 5690 5683 5670 5655 5642 5630 5624 5622 5622 5622 5622 5620 5618 5620 5622 5622 5626 5628 5633 5636 5640 5643 5647 5652 5657 5661 5663 5666 5671 5677 5680 5684 5688 5691 5693
5707 5710 5712 5714 5712 5711 5709 5707 5706 5702 5699 5693 5689 5682 5670 5656 5645 5632 5624 5622 5622 5623 5623 5623 5622 5622 5624 5626 5627 5631 5635 5637 5641 5646 5648 5652 5656 5659 5663 5667 5670 5674 5678 5681 5684 5688 5690
5699 5702 5706 5707 5707 5705 5704 5703 5701 5699 5696 5691 5687 5680 5670 5657 5644 5633 5623 5621 5621 5622 5624 5624 5626 5625 5626 5628 5630 5632 5636 5640 5643 5647 5650 5654 5656 5659 5661 5666 5669 5671 5676 5679 5681 5683 5684
5690 5695 5699 5701 5701 5700 5699 5698 5697 5696 5692 5688 5686 5678 5670 5658 5646 5635 5625 5621 5621 5622 5624 5625 5626 5627 5628 5629 5631 5633 5637 5641 5645 5648 5650 5653 5655 5659 5663 5666 5669 5671 5673 5674 5675 5676 5680
5680 5686 5691 5694 5695 5695 5694 5694 5693 5692 5689 5686 5683 5677 5670 5659 5647 5636 5625 5619 5620 5621 5623 5625 5626 5628 5629 5630 5632 5635 5638 5642 5644 5647 5650 5653 5655 5658 5660 5662 5664 5667 5669 5670 5671 5674 5673
5671 5677 5684 5687 5688 5689 5690 5689 5689 5687 5685 5683 5680 5676 5669 5659 5647 5637 5627 5620 5619 5620 5622 5624 5626 5627 5629 5630 5633 5636 5639 5641 5643 5646 5647 5649 5652 5654 5656 5659 5660 5662 5664 5666 5666 5667 5667
5663 5670 5675 5679 5682 5684 5684 5684 5684 5683 5682 5679 5677 5673 5668 5661 5650 5638 5630 5621 5618 5618 5620 5622 5624 5626 5628 5631 5632 5634 5637 5639 5641 5643 5645 5647 5649 5651 5652 5654 5655 5657 5658 5659 5660 5659 5659
5654 5662 5667 5672 5675 5678 5679 5680 5680 5679 5678 5676 5673 5670 5666 5659 5651 5640 5631 5622 5617 5616 5618 5620 5623 5624 5627 5628 5631 5633 5634 5636 5638 5639 5641 5642 5644 5645 5647 5648 5650 5651 5651 5652 5652 5652 5651
5645 5652 5659 5664 5668 5672 5674 5675 5675 5674 5674 5672 5670 5667 5665 5659 5652 5642 5633 5623 5616 5615 5615 5618 5620 5623 5625 5626 5628 5630 5632 5633 5634 5636 5637 5639 5640 5641 5642 5642 5644 5644 5645 5645 5645 5645 5645
5637 5644 5651 5657 5663 5667 5669 5670 5671 5670 5669 5669 5667 5665 5662 5657 5652 5643 5634 5626 5618 5613 5613 5615 5616 5618 5622 5624 5626 5627 5629 5629 5631 5632 5633 5634 5635 5637 5637 5638 5638 5637 5638 5638 5639 5639 5639
5629 5637 5644 5650 5656 5661 5664 5665 5666 5665 5665 5665 5665 5662 5659 5655 5650 5644 5636 5628 5617 5613 5613 5612 5613 5616 5619 5621 5623 5625 5626 5627 5628 5628 5629 5630 5630 5631 5631 5632 5631 5632 5633 5633 5633 5636 5633
5622 5630 5637 5642 5648 5655 5658 5661 5661 5661 5661 5661 5661 5659 5657 5653 5649 5643 5637 5629 5619 5614 5612 5611 5612 5615 5616 5618 5619 5620 5622 5622 5624 5624 5625 5626 5626 5626 5627 5627 5628 5627 5627 5628 5627 5627 5627
5615 5623 5630 5635 5641 5648 5652 5655 5656 5657 5657 5656 5656 5655 5654 5652 5646 5642 5636 5629 5622 5615 5612 5610 5610 5611 5612 5613 5615 5615 5617 5618 5619 5620 5621 5622 5622 5622 5623 5622 5621 5620 5621 5620 5620 5620 5620